Cortez, CO

12:41 PM MDT on April 23, 2018 (GMT -0600)
Cortez Municipal

Weather History for KCEZ - June, 2013

Change the Weather History Date:

Saturday, June 1, 2013

  Actual Average Record
Temperature  
Mean Temperature 56 °F 60 °F  
Max Temperature 80 °F 80 °F 91 °F (2002)
Min Temperature 32 °F 40 °F 32 °F (2006)
Degree Days  
Heating Degree Days 9 6  
Month to date heating degree days 9 6  
Since 1 June heating degree days 9 6  
Since 1 July heating degree days 6403 6373  
Cooling Degree Days 0 1  
Month to date cooling degree days 0 1  
Year to date cooling degree days 0 6  
Since 1 June cooling degree days 0 1  
Growing Degree Days 6 (Base 50)    
Moisture  
Dew Point 14 °F    
Average Humidity 27    
Maximum Humidity 47    
Minimum Humidity 6    
Precipitation  
Precipitation 0.00 in 0.03 in 0.00 in (2018)
Month to date precipitation 0.00 0.03  
Year to date precipitation 3.33 5.17  
Sea Level Pressure  
Sea Level Pressure 30.00 in    
Wind  
Wind Speed 7 mph (NNE)    
Max Wind Speed 15 mph    
Max Gust Speed 29 mph    
Visibility 10 miles    
Events      
T = Trace of Precipitation, MM = Missing Value Source: NWS Daily Summary

Daily Weather History Graph

Daily Weather History Graph

Search for Another Location

Airport or City:

Astronomy

Jun. 01, 2013 Rise Set
Actual Time 5:55 AM MDT 8:29 PM MDT
Civil Twilight 5:25 AM MDT 9:00 PM MDT
Nautical Twilight 4:47 AM MDT 9:38 PM MDT
Astronomical Twilight 4:05 AM MDT 10:20 PM MDT
Moon 1:44 AM MDT (6/1) 2:09 PM MDT (6/1)
Length of Visible Light 15h 35m
Length of Day
14h 34m
Last Quarter, 40% of the Moon is Illuminated
Jun 1
Last Quarter
Jun 8
New
Jun 16
First Quarter
Jun 23
Full
Jun 29
Last Quarter

Hourly Weather History & Observations

Time (MDT) Temp. Windchill Dew Point Humidity Pressure Visibility Wind Dir Wind Speed Gust Speed Precip Events Conditions
12:53 AM 42.1 °F 40.2 °F 19.0 °F 40% 30.00 in 10.0 mi ENE 3.5 mph - N/A   Clear
1:53 AM 39.0 °F 35.7 °F 17.1 °F 41% 30.01 in 10.0 mi Variable 4.6 mph - N/A   Clear
2:53 AM 36.0 °F 31.1 °F 16.0 °F 44% 30.02 in 10.0 mi ENE 5.8 mph - N/A   Clear
3:53 AM 37.9 °F 35.5 °F 15.1 °F 39% 30.02 in 10.0 mi ENE 3.5 mph - N/A   Clear
4:53 AM 33.1 °F 26.9 °F 16.0 °F 50% 30.05 in 10.0 mi ENE 6.9 mph - N/A   Clear
5:53 AM 33.1 °F 26.9 °F 16.0 °F 50% 30.07 in 10.0 mi East 6.9 mph - N/A   Clear
6:53 AM 39.9 °F 33.4 °F 14.0 °F 35% 30.07 in 10.0 mi ENE 10.4 mph - N/A   Clear
7:53 AM 52.0 °F - 15.1 °F 23% 30.05 in 10.0 mi NNW 3.5 mph - N/A   Clear
8:53 AM 60.1 °F - 17.1 °F 19% 30.04 in 10.0 mi NNE 6.9 mph - N/A   Clear
9:53 AM 66.9 °F - 16.0 °F 14% 30.03 in 10.0 mi Variable 3.5 mph - N/A   Clear
10:53 AM 69.1 °F - 12.0 °F 11% 30.04 in 10.0 mi NNW 6.9 mph - N/A   Clear
11:53 AM 73.0 °F - 10.9 °F 9% 30.03 in 10.0 mi NW 6.9 mph 16.1 mph N/A   Clear
12:53 PM 73.9 °F - 10.0 °F 9% 30.02 in 10.0 mi NNW 8.1 mph 17.3 mph N/A   Clear
1:53 PM 75.9 °F - 3.9 °F 6% 30.00 in 10.0 mi North 11.5 mph 17.3 mph N/A   Clear
2:53 PM 77.0 °F - 10.9 °F 8% 29.99 in 10.0 mi Variable 6.9 mph 16.1 mph N/A   Clear
3:53 PM 78.1 °F - 10.9 °F 8% 29.96 in 10.0 mi NW 6.9 mph 16.1 mph N/A   Clear
4:53 PM 80.1 °F - 10.9 °F 7% 29.95 in 10.0 mi NNW 12.7 mph 17.3 mph N/A   Clear
5:53 PM 79.0 °F - 8.1 °F 7% 29.95 in 10.0 mi NW 10.4 mph - N/A   Clear
6:53 PM 78.1 °F - 6.1 °F 6% 29.93 in 10.0 mi NW 8.1 mph 28.8 mph N/A   Clear
7:53 PM 73.9 °F - 12.0 °F 9% 29.92 in 10.0 mi North 8.1 mph - N/A   Clear
8:53 PM 68.0 °F - 14.0 °F 12% 29.93 in 10.0 mi SW 4.6 mph - N/A   Clear
9:53 PM 55.0 °F - 19.0 °F 24% 29.96 in 10.0 mi NE 6.9 mph - N/A   Clear
10:53 PM 52.0 °F - 18.0 °F 26% 29.98 in 10.0 mi NE 8.1 mph - N/A   Clear
11:53 PM 48.0 °F - 18.0 °F 30% 29.98 in 10.0 mi ENE 6.9 mph - N/A   Clear